Tracking 17632 objects as of 3-May-2016
HD Live streaming from Space Station
objects crossing your sky now

FENGYUN 2B AKM

Track FENGYUN 2B AKM now!


NORAD ID: 26460
Int'l Code: 2000-032C
Perigee: 35,732.5 km
Apogee: 35,925.1 km
Inclination: 11.9 °
Period: 1,437.9 minutes
Semi major axis: 42199 km
RCS: 7.9432 m2 (large)
Launch date: June 25, 2000
Source: People's Republic of China (PRC)
Launch site: Xichang Space Center, China (XSC)

Note: This is a ROCKET BODY
Your satellite tracking list
Your tracking list is empty





NASA's NSSDC Master Catalog

Two Line Element Set (TLE):
1 26460U 00032C   16121.71659135 -.00000338 +00000-0 +00000-0 0  9996
2 26460 011.9400 037.3084 0022817 300.6315 246.4606 01.00146775085123
Source of the keplerian elements: AFSPC

N2YO: 326